Preview of NWS' New Version of Forecast
This preview is not operational and should not be used for support decisions.

Regional Weather Roundup (RWR)

Issued by National Weather Service (NWS)

                            
000
ASUS45 KCYS 241810
RWRWY 

WYOMING REGIONAL WEATHER ROUNDUP
NATIONAL WEATHER SERVICE CHEYENNE WY
1200 PM MDT MON JUN 24 2019

NOTE:  "FAIR" INDICATES FEW OR NO CLOUDS BELOW 12,000 FEET
WITH NO SIGNIFICANT WEATHER AND/OR OBSTRUCTIONS TO VISIBILITY.

WYZ001-241900-
...YELLOWSTONE NATIONAL PARK...
  
CITY           SKY/WX    TMP DP  RH WIND       PRES   REMARKS
LK YELLOWSTONE   N/A     51  32  48 VRB6      30.07S                  
6HR MIN TEMP:  34; 6HR MAX TEMP:  54;                                

W YELLOWSTONE  NOT AVBL                                               

$$
WYZ002>013-054>058-071-098>099-241900-
...NORTHERN WYOMING...
  
CITY           SKY/WX    TMP DP  RH WIND       PRES   REMARKS
JACKSON        PTSUNNY   60  32  34 SW16G25   30.04S                  
CODY           SUNNY     64  41  42 NW5       29.92F                  
GREYBULL       SUNNY     70  39  32 VRB3      29.85F                  
6HR MIN TEMP:  58; 6HR MAX TEMP:  72;                                

WORLAND        SUNNY     69  42  37 W6        29.87F                  
6HR MIN TEMP:  45; 6HR MAX TEMP:  70;                                

SHERIDAN       CLOUDY    64  46  52 W7        29.89S                  
6HR MIN TEMP:  54; 6HR MAX TEMP:  64;                                

BUFFALO        PTSUNNY   63  46  54 N15       29.93R                  
6HR MIN TEMP:  49; 6HR MAX TEMP:  63;                                

GILLETTE       PTSUNNY   64  50  60 NW12G20   29.88R                  
6HR MIN TEMP:  52; 6HR MAX TEMP:  66;                                

HULETT         CLOUDY    64  46  52 W8        29.88S                  
NEWCASTLE      FAIR      68  41  37 NW8G20    29.86S                  

$$
WYZ014>020-022>026-101>103-241900-
...CENTRAL WYOMING...
  
CITY           SKY/WX    TMP DP  RH WIND       PRES   REMARKS
BIG PINEY      SUNNY     65  27  23 NW24G35   30.07S                  
6HR MIN TEMP:  38; 6HR MAX TEMP:  65;                                

PINEDALE       SUNNY     63  21  20 W21G29    30.07S                  
DUBOIS         FAIR      61  27  27 NW25G35   29.99F                  
LANDER         MOSUNNY   70  32  24 SW15      29.91F                  
6HR MIN TEMP:  49; 6HR MAX TEMP:  71;                                

RIVERTON       MOSUNNY   70  32  24 S14G21    29.92F                  
6HR MIN TEMP:  51; 6HR MAX TEMP:  70;                                

CASPER         MOSUNNY   71  38  29 W14G22    29.90F                  
6HR MIN TEMP:  50; 6HR MAX TEMP:  73;                                

DOUGLAS        SUNNY     74  41  30 W13       29.89S                  
6HR MIN TEMP:  48; 6HR MAX TEMP:  74;                                


$$
WYZ021-027>030-104>119-241900-
...SOUTHERN WYOMING...
  
CITY           SKY/WX    TMP DP  RH WIND       PRES   REMARKS
EVANSTON       MOSUNNY   65  31  28 W18G25    30.11F                  
6HR MIN TEMP:  43; 6HR MAX TEMP:  65;                                

KEMMERER       SUNNY     64  30  27 W20G25    30.10F                  
FORT BRIDGER   NOT AVBL                                               
ROCK SPRINGS   SUNNY     66  27  23 W18G30    30.07F                  
6HR MIN TEMP:  48; 6HR MAX TEMP:  66;                                

DIXON          FAIR      68  32  26 S22G32    30.10F                  
RAWLINS        SUNNY     68  26  20 SW25G35   30.05S                  
6HR MIN TEMP:  52; 6HR MAX TEMP:  69; 6HR PCP: TRACE;                

SARATOGA       FAIR      64  34  32 W25G31    30.08S                  
LARAMIE        MOSUNNY   65  32  29 W29G37    30.05S                  
6HR MIN TEMP:  44; 6HR MAX TEMP:  65;                                

CHEYENNE       MOSUNNY   70  36  28 W24G40    30.00S                  
TORRINGTON     MOSUNNY   77  43  29 NW10      29.84F                  
6HR MIN TEMP:  45; 6HR MAX TEMP:  77;                                

PINE BLUFFS    FAIR      75  34  22 W22G30    29.94S                  

$$
  

000
ASUS45 KCYS 241810
RWRWY 

WYOMING REGIONAL WEATHER ROUNDUP
NATIONAL WEATHER SERVICE CHEYENNE WY
1200 PM MDT MON JUN 24 2019

NOTE:  "FAIR" INDICATES FEW OR NO CLOUDS BELOW 12,000 FEET
WITH NO SIGNIFICANT WEATHER AND/OR OBSTRUCTIONS TO VISIBILITY.

WYZ001-241900-
YELLOWSTONE NATIONAL PARK
  
CITY           SKY/WX    TMP DP  RH WIND       PRES   REMARKS
LK YELLOWSTONE   N/A     51  32  48 VRB6      30.07S                  
6HR MIN TEMP:  34; 6HR MAX TEMP:  54;                                

W YELLOWSTONE  NOT AVBL                                               

$$
WYZ002>013-054>058-071-098>099-241900-
NORTHERN WYOMING
  
CITY           SKY/WX    TMP DP  RH WIND       PRES   REMARKS
JACKSON        PTSUNNY   60  32  34 SW16G25   30.04S                  
CODY           FAIR      64  41  42 NW5       29.92F                  
GREYBULL       FAIR      70  39  32 VRB3      29.85F                  
6HR MIN TEMP:  58; 6HR MAX TEMP:  72;                                

WORLAND        FAIR      69  42  37 W6        29.87F                  
6HR MIN TEMP:  45; 6HR MAX TEMP:  70;                                

SHERIDAN       CLOUDY    64  46  52 W7        29.89S                  
6HR MIN TEMP:  54; 6HR MAX TEMP:  64;                                

BUFFALO        PTSUNNY   63  46  54 N15       29.93R                  
6HR MIN TEMP:  49; 6HR MAX TEMP:  63;                                

GILLETTE       PTSUNNY   64  50  60 NW12G20   29.88R                  
6HR MIN TEMP:  52; 6HR MAX TEMP:  66;                                

HULETT         CLOUDY    64  46  52 W8        29.88                   
NEWCASTLE      FAIR      68  41  37 NW8G20    29.86                   

$$
WYZ014>020-022>026-101>103-241900-
CENTRAL WYOMING
  
CITY           SKY/WX    TMP DP  RH WIND       PRES   REMARKS
BIG PINEY      FAIR      65  27  23 NW24G35   30.07S                  
6HR MIN TEMP:  38; 6HR MAX TEMP:  65;                                

PINEDALE       FAIR      63  21  20 W21G29    30.07                   
DUBOIS         FAIR      61  27  27 NW25G35   29.99                   
LANDER         FAIR      70  32  24 SW15      29.91F                  
6HR MIN TEMP:  49; 6HR MAX TEMP:  71;                                

RIVERTON       FAIR      70  32  24 S14G21    29.92F                  
6HR MIN TEMP:  51; 6HR MAX TEMP:  70;                                

CASPER         FAIR      71  38  29 W14G22    29.90F                  
6HR MIN TEMP:  50; 6HR MAX TEMP:  73;                                

DOUGLAS        FAIR      74  41  30 W13       29.89S                  
6HR MIN TEMP:  48; 6HR MAX TEMP:  74;                                


$$
WYZ021-027>030-104>119-241900-
SOUTHERN WYOMING
  
CITY           SKY/WX    TMP DP  RH WIND       PRES   REMARKS
EVANSTON       FAIR      65  31  28 W18G25    30.11F                  
6HR MIN TEMP:  43; 6HR MAX TEMP:  65;                                

KEMMERER       FAIR      63  30  29 W17G25    30.10                   
ROCK SPRINGS   FAIR      66  27  23 W18G30    30.07F                  
6HR MIN TEMP:  48; 6HR MAX TEMP:  66;                                

DIXON          FAIR      68  32  26 S22G32    30.10F                  
RAWLINS        FAIR      68  26  20 SW25G35   30.05S                  
6HR MIN TEMP:  52; 6HR MAX TEMP:  69; 6HR PCP: TRACE;                

SARATOGA       FAIR      64  34  32 W25G31    30.08S                  
LARAMIE        FAIR      65  32  29 W29G37    30.05S                  
6HR MIN TEMP:  44; 6HR MAX TEMP:  65;                                

CHEYENNE       FAIR      70  36  28 W24G40    30.00S                  
6HR MIN TEMP:  52; 6HR MAX TEMP:  68;                                

TORRINGTON     FAIR      77  43  29 NW10      29.84F                  
6HR MIN TEMP:  45; 6HR MAX TEMP:  77;                                

PINE BLUFFS    FAIR      75  34  22 W22G30    29.94S                  

$$